| time (UTC) | temp C | wind direction | speed KPH | gust KPH | rain 1hr cm | rain 24hr cm | rain mn cm | humidity % | barometer mb |
| 20260904050552 | 30 | 234 | 1.6 | 1.6 | 0.00 | 0.08 | 0.08 | 53 | 1008.3 |
| 20260904045549 | 30 | 163 | 1.6 | 1.6 | 0.00 | 0.08 | 0.08 | 53 | 1008.4 |
| 20260904044522 | 30 | 170 | 1.6 | 3.2 | 0.00 | 0.08 | 0.08 | 53 | 1008.4 |
| 20260904043528 | 30 | 192 | 1.6 | 1.6 | 0.00 | 0.08 | 0.08 | 53 | 1008.5 |
| 20260904042534 | 30 | 195 | 3.2 | 3.2 | 0.00 | 0.08 | 0.08 | 53 | 1008.6 |
| 20260904041528 | 30 | 196 | 1.6 | 1.6 | 0.00 | 0.08 | 0.08 | 53 | 1008.6 |
| 20260904040550 | 30 | 202 | 3.2 | 3.2 | 0.00 | 0.08 | 0.08 | 52 | 1008.5 |
| 20260904035548 | 30 | 161 | 3.2 | 3.2 | 0.00 | 0.08 | 0.08 | 52 | 1008.4 |
| 20260904034524 | 30 | 198 | 3.2 | 3.2 | 0.00 | 0.08 | 0.08 | 52 | 1008.2 |
| 20260904033550 | 30 | 232 | 3.2 | 3.2 | 0.00 | 0.08 | 0.08 | 52 | 1008.0 |
| 20260904032525 | 30 | 178 | 3.2 | 4.8 | 0.00 | 0.08 | 0.08 | 52 | 1007.8 |
| 20260904031543 | 30 | 201 | 3.2 | 3.2 | 0.00 | 0.08 | 0.08 | 52 | 1007.7 |
| 20260904030522 | 30 | 169 | 3.2 | 3.2 | 0.00 | 0.08 | 0.08 | 52 | 1007.5 |
| 20260904025543 | 31 | 164 | 1.6 | 3.2 | 0.00 | 0.08 | 0.08 | 51 | 1007.3 |
| 20260904024528 | 31 | 219 | 3.2 | 3.2 | 0.00 | 0.08 | 0.08 | 51 | |
| 20260904023544 | 31 | 348 | 1.6 | 3.2 | 0.00 | 0.08 | 0.08 | 51 | |
| 20260904022549 | 31 | 194 | 1.6 | 3.2 | 0.00 | 0.08 | 0.08 | 51 | |
| 20260904021527 | 31 | 155 | 1.6 | 1.6 | 0.00 | 0.08 | 0.08 | 50 | |
| 20260904020524 | 31 | 161 | 1.6 | 1.6 | 0.00 | 0.08 | 0.08 | 50 | 1007.0 |
| 20260904015546 | 31 | 242 | 1.6 | 1.6 | 0.00 | 0.08 | 0.08 | 49 | 1006.8 |
| 20260904014541 | 32 | 147 | 1.6 | 3.2 | 0.00 | 0.08 | 0.08 | 49 | 1006.6 |
| 20260904013537 | 32 | 159 | 1.6 | 1.6 | 0.00 | 0.08 | 0.08 | 50 | 1006.5 |
| 20260904012543 | 32 | 189 | 1.6 | 1.6 | 0.08 | 0.08 | 0.08 | 52 | 1006.5 |
| 20260904011524 | 32 | 192 | 1.6 | 1.6 | 0.08 | 0.08 | 0.08 | 52 | 1006.3 |
| 20260904010522 | 32 | 159 | 1.6 | 1.6 | 0.08 | 0.08 | 0.08 | 52 | 1006.3 |
| 20260904005528 | 32 | 205 | 0.0 | 1.6 | 0.08 | 0.08 | 0.08 | 52 | 1006.4 |
| 20260904004531 | 32 | 0.0 | 0.0 | 0.08 | 0.08 | 0.08 | 52 | 1006.4 | |
| 20260904003540 | 32 | 0.0 | 0.0 | 0.08 | 0.08 | 0.08 | 53 | 1006.5 | |
| 20260904002521 | 33 | 17 | 0.0 | 0.0 | 0.00 | 0.00 | 0.00 | 52 | 1006.3 |
| 20260904001559 | 33 | 180 | 1.6 | 1.6 | 0.00 | 0.00 | 0.00 | 49 | 1006.4 |
| 20260904000546 | 33 | 181 | 1.6 | 1.6 | 0.00 | 0.00 | 0.00 | 46 | 1006.3 |
| 20260903235526 | 34 | 154 | 3.2 | 3.2 | 0.00 | 0.00 | 0.00 | 44 | 1006.2 |
| 20260903234542 | 35 | 148 | 1.6 | 1.6 | 0.00 | 0.00 | 0.00 | 40 | 1006.4 |
| 20260903233538 | 35 | 237 | 1.6 | 1.6 | 0.00 | 0.00 | 0.00 | 40 | 1006.3 |
| 20260903232536 | 35 | 293 | 1.6 | 1.6 | 0.00 | 0.00 | 0.00 | 39 | 1006.4 |
| 20260903231523 | 36 | 226 | 1.6 | 3.2 | 0.00 | 0.00 | 0.00 | 40 | 1006.4 |
| 20260903230524 | 36 | 301 | 1.6 | 1.6 | 0.00 | 0.00 | 0.00 | 41 | 1006.3 |
| 20260903225550 | 36 | 280 | 1.6 | 1.6 | 0.00 | 0.00 | 0.00 | 40 | 1006.5 |
| 20260903224527 | 36 | 271 | 1.6 | 1.6 | 0.00 | 0.00 | 0.00 | 39 | 1006.5 |
| 20260903223547 | 36 | 244 | 1.6 | 1.6 | 0.00 | 0.00 | 0.00 | 40 | 1006.5 |
| 20260903222539 | 36 | 311 | 1.6 | 1.6 | 0.00 | 0.00 | 0.00 | 40 | 1006.6 |
| 20260903221522 | 36 | 305 | 1.6 | 1.6 | 0.00 | 0.00 | 0.00 | 40 | 1006.8 |
| 20260903220520 | 35 | 290 | 0.0 | 0.0 | 0.00 | 0.00 | 0.00 | 39 | 1006.9 |
| 20260903215557 | 36 | 127 | 1.6 | 1.6 | 0.00 | 0.00 | 0.00 | 39 | 1007.0 |
| 20260903214527 | 36 | 299 | 1.6 | 1.6 | 0.00 | 0.00 | 0.00 | 40 | 1007.1 |
| 20260903213541 | 36 | 242 | 3.2 | 3.2 | 0.00 | 0.00 | 0.00 | 40 | 1007.2 |
| 20260903212553 | 36 | 255 | 1.6 | 3.2 | 0.00 | 0.00 | 0.00 | 40 | 1007.3 |
| 20260903211528 | 36 | 14 | 1.6 | 1.6 | 0.00 | 0.00 | 0.00 | 41 | 1007.3 |
| 20260903210533 | 36 | 285 | 1.6 | 1.6 | 0.00 | 0.00 | 0.00 | 41 | 1007.5 |
| 20260903205523 | 35 | 339 | 3.2 | 3.2 | 0.00 | 0.00 | 0.00 | 41 | 1007.6 |
| 20260903204538 | 35 | 355 | 1.6 | 3.2 | 0.00 | 0.00 | 0.00 | 41 | 1007.8 |
| 20260903203520 | 35 | 335 | 1.6 | 1.6 | 0.00 | 0.00 | 0.00 | 41 | 1007.9 |
| 20260903202526 | 35 | 340 | 1.6 | 1.6 | 0.00 | 0.00 | 0.00 | 41 | 1008.1 |
| 20260903201551 | 35 | 301 | 1.6 | 1.6 | 0.00 | 0.00 | 0.00 | 42 | 1008.3 |
| 20260903200520 | 35 | 28 | 1.6 | 1.6 | 0.00 | 0.00 | 0.00 | 42 | 1008.4 |
| 20260903195519 | 35 | 206 | 1.6 | 1.6 | 0.00 | 0.00 | 0.00 | 41 | 1008.6 |
| 20260903194535 | 35 | 227 | 1.6 | 1.6 | 0.00 | 0.00 | 0.00 | 42 | 1008.7 |
| 20260903193523 | 35 | 278 | 0.0 | 1.6 | 0.00 | 0.00 | 0.00 | 43 | 1008.9 |
| 20260903192531 | 34 | 15 | 1.6 | 3.2 | 0.00 | 0.00 | 0.00 | 43 | 1009.0 |
| 20260903191548 | 35 | 237 | 1.6 | 1.6 | 0.00 | 0.00 | 0.00 | 43 | 1009.2 |
| 20260903190526 | 35 | 285 | 1.6 | 3.2 | 0.00 | 0.00 | 0.00 | 43 | 1009.4 |
| 20260903185545 | 35 | 234 | 1.6 | 1.6 | 0.00 | 0.00 | 0.00 | 44 | 1009.6 |
| 20260903184520 | 34 | 241 | 3.2 | 3.2 | 0.00 | 0.00 | 0.00 | 45 | 1009.8 |
| 20260903183521 | 33 | 238 | 1.6 | 3.2 | 0.00 | 0.00 | 0.00 | 46 | 1009.9 |
| 20260903182552 | 33 | 266 | 1.6 | 1.6 | 0.00 | 0.00 | 0.00 | 46 | 1010.1 |
| 20260903181528 | 33 | 214 | 1.6 | 1.6 | 0.00 | 0.00 | 0.00 | 47 | 1010.3 |
| 20260903180531 | 32 | 218 | 1.6 | 1.6 | 0.00 | 0.00 | 0.00 | 49 | 1010.5 |
| 20260903175539 | 32 | 208 | 1.6 | 1.6 | 0.00 | 0.00 | 0.00 | 50 | 1010.6 |
| 20260903174524 | 31 | 71 | 0.0 | 1.6 | 0.00 | 0.00 | 0.00 | 51 | 1010.7 |
| 20260903173609 | 31 | 276 | 1.6 | 1.6 | 0.00 | 0.00 | 0.00 | 51 | 1010.7 |
| 20260903172525 | 31 | 203 | 0.0 | 1.6 | 0.00 | 0.00 | 0.00 | 52 | 1010.7 |
| 20260903171541 | 31 | 187 | 1.6 | 1.6 | 0.00 | 0.00 | 0.00 | 52 | 1010.7 |
| 20260903170547 | 30 | 199 | 0.0 | 1.6 | 0.00 | 0.00 | 0.00 | 52 | 1010.6 |
| 20260903165523 | 30 | 190 | 0.0 | 0.0 | 0.00 | 0.00 | 0.00 | 52 | 1010.6 |
| 20260903164525 | 30 | 202 | 0.0 | 1.6 | 0.00 | 0.00 | 0.00 | 52 | 1010.6 |
| 20260903163522 | 30 | 159 | 1.6 | 1.6 | 0.00 | 0.00 | 0.00 | 52 | 1010.6 |
| 20260903162538 | 30 | 205 | 1.6 | 1.6 | 0.00 | 0.00 | 0.00 | 52 | 1010.6 |
| 20260903161535 | 30 | 122 | 0.0 | 0.0 | 0.00 | 0.00 | 0.00 | 52 | 1010.6 |
| 20260903160548 | 30 | 45 | 0.0 | 0.0 | 0.00 | 0.00 | 0.00 | 52 | 1010.6 |
| 20260903155623 | 30 | 56 | 0.0 | 1.6 | 0.00 | 0.00 | 0.00 | 52 | 1010.6 |
| 20260903154530 | 30 | 66 | 1.6 | 1.6 | 0.00 | 0.00 | 0.00 | 53 | 1010.6 |
| 20260903153527 | 30 | 21 | 0.0 | 1.6 | 0.00 | 0.00 | 0.00 | 53 | 1010.5 |
| 20260903152547 | 30 | 59 | 1.6 | 1.6 | 0.00 | 0.00 | 0.00 | 54 | 1010.6 |
| 20260903151524 | 30 | 27 | 1.6 | 1.6 | 0.00 | 0.00 | 0.00 | 54 | 1010.6 |
| 20260903150522 | 29 | 39 | 1.6 | 1.6 | 0.00 | 0.00 | 0.00 | 55 | 1010.6 |
| 20260903145520 | 28 | 46 | 0.0 | 1.6 | 0.00 | 0.00 | 0.00 | 55 | 1010.7 |
| 20260903144531 | 28 | 33 | 0.0 | 0.0 | 0.00 | 0.00 | 0.00 | 55 | 1010.7 |
| 20260903143538 | 28 | 27 | 1.6 | 1.6 | 0.00 | 0.00 | 0.00 | 55 | 1010.8 |
| 20260903142522 | 28 | 328 | 1.6 | 1.6 | 0.00 | 0.00 | 0.00 | 55 | |
| 20260903141537 | 28 | 345 | 1.6 | 1.6 | 0.00 | 0.00 | 0.00 | 55 | 1011.0 |
| 20260903140523 | 28 | 310 | 1.6 | 1.6 | 0.00 | 0.00 | 0.00 | 55 | 1010.8 |
| 20260903135529 | 28 | 339 | 1.6 | 1.6 | 0.00 | 0.00 | 0.00 | 55 | 1010.8 |
| 20260903134536 | 28 | 322 | 0.0 | 1.6 | 0.00 | 0.00 | 0.00 | 55 | 1010.7 |
| 20260903133541 | 28 | 312 | 0.0 | 0.0 | 0.00 | 0.00 | 0.00 | 55 | 1010.6 |
| 20260903132533 | 28 | 306 | 0.0 | 0.0 | 0.00 | 0.00 | 0.00 | 55 | 1010.6 |
| 20260903131520 | 28 | 0.0 | 0.0 | 0.00 | 0.00 | 0.00 | 55 | 1010.3 | |
| 20260903130526 | 28 | 0.0 | 0.0 | 0.00 | 0.00 | 0.00 | 55 | 1010.2 | |
| 20260903125552 | 28 | 0.0 | 0.0 | 0.00 | 0.00 | 0.00 | 55 | 1010.1 | |
| 20260903124538 | 28 | 195 | 0.0 | 0.0 | 0.00 | 0.00 | 0.00 | 55 | 1010.0 |
| 20260903123551 | 28 | 245 | 1.6 | 3.2 | 0.00 | 0.00 | 0.00 | 55 | 1009.9 |
| 20260903122532 | 28 | 211 | 1.6 | 1.6 | 0.00 | 0.00 | 0.00 | 55 | 1009.6 |
| 20260903121544 | 28 | 222 | 0.0 | 1.6 | 0.00 | 0.00 | 0.00 | 55 | 1009.6 |
| 20260903120529 | 28 | 183 | 0.0 | 0.0 | 0.00 | 0.00 | 0.00 | 55 | 1009.5 |
| 20260903115527 | 28 | 158 | 0.0 | 0.0 | 0.00 | 0.00 | 0.00 | 55 | 1009.3 |
| 20260903114526 | 28 | 149 | 0.0 | 1.6 | 0.00 | 0.00 | 0.00 | 55 | 1009.2 |
| 20260903113523 | 28 | 201 | 0.0 | 1.6 | 0.00 | 0.00 | 0.00 | 55 | 1009.2 |
| 20260903112521 | 28 | 103 | 0.0 | 1.6 | 0.00 | 0.00 | 0.00 | 55 | 1009.2 |
| 20260903111519 | 28 | 172 | 1.6 | 1.6 | 0.00 | 0.00 | 0.00 | 55 | 1009.2 |
| 20260903110532 | 28 | 132 | 1.6 | 1.6 | 0.00 | 0.00 | 0.00 | 55 | 1009.2 |
| 20260903105523 | 28 | 147 | 1.6 | 1.6 | 0.00 | 0.00 | 0.00 | 55 | 1009.2 |
| 20260903104539 | 28 | 153 | 1.6 | 1.6 | 0.00 | 0.00 | 0.00 | 55 | 1009.3 |
| 20260903103551 | 28 | 209 | 1.6 | 1.6 | 0.00 | 0.00 | 0.00 | 54 | 1009.4 |
| 20260903102524 | 28 | 189 | 0.0 | 1.6 | 0.00 | 0.00 | 0.00 | 54 | 1009.4 |
| 20260903101529 | 28 | 174 | 1.6 | 1.6 | 0.00 | 0.00 | 0.00 | 54 | 1009.5 |
| 20260903100520 | 29 | 148 | 1.6 | 1.6 | 0.00 | 0.00 | 0.00 | 54 | 1009.5 |
| 20260903095615 | 29 | 141 | 0.0 | 1.6 | 0.00 | 0.00 | 0.00 | 53 | 1009.4 |
| 20260903094520 | 29 | 0.0 | 0.0 | 0.00 | 0.00 | 0.00 | 53 | 1009.4 | |
| 20260903093521 | 30 | 0.0 | 0.0 | 0.00 | 0.00 | 0.00 | 53 | 1009.4 | |
| 20260903092526 | 30 | 0.0 | 0.0 | 0.00 | 0.00 | 0.00 | 53 | 1009.5 | |
| 20260903091533 | 30 | 0.0 | 0.0 | 0.00 | 0.00 | 0.00 | 53 | 1009.5 | |
| 20260903090532 | 30 | 0.0 | 0.0 | 0.00 | 0.00 | 0.00 | 53 | 1009.6 | |
| 20260903085534 | 30 | 0.0 | 0.0 | 0.00 | 0.00 | 0.00 | 53 | 1009.7 | |
| 20260903084523 | 30 | 0.0 | 0.0 | 0.00 | 0.00 | 0.00 | 52 | 1009.7 | |
| 20260903083525 | 30 | 0.0 | 0.0 | 0.00 | 0.00 | 0.00 | 52 | 1009.7 | |
| 20260903082529 | 30 | 157 | 0.0 | 0.0 | 0.00 | 0.00 | 0.00 | 52 | 1009.7 |
| 20260903081528 | 30 | 190 | 0.0 | 1.6 | 0.00 | 0.00 | 0.00 | 52 | 1009.8 |
| 20260903080524 | 30 | 210 | 0.0 | 1.6 | 0.00 | 0.00 | 0.00 | 51 | 1009.8 |
| 20260903075522 | 30 | 228 | 0.0 | 0.0 | 0.00 | 0.00 | 0.00 | 52 | 1009.8 |
| 20260903074521 | 30 | 225 | 0.0 | 0.0 | 0.00 | 0.00 | 0.00 | 52 | 1009.9 |
| 20260903073527 | 30 | 0.0 | 0.0 | 0.00 | 0.00 | 0.00 | 52 | 1009.8 | |
| 20260903072525 | 30 | 0.0 | 0.0 | 0.00 | 0.00 | 0.00 | 52 | 1009.7 | |
| 20260903071540 | 30 | 0.0 | 0.0 | 0.00 | 0.00 | 0.00 | 52 | 1009.7 | |
| 20260903070545 | 30 | 0.0 | 0.0 | 0.00 | 0.00 | 0.00 | 52 | 1009.6 | |
| 20260903065552 | 30 | 0.0 | 0.0 | 0.00 | 0.00 | 0.00 | 51 | 1009.5 | |
| 20260903064524 | 31 | 0.0 | 0.0 | 0.00 | 0.00 | 0.00 | 51 | 1009.5 | |
| 20260903063542 | 31 | 0.0 | 0.0 | 0.00 | 0.00 | 0.00 | 50 | 1009.6 | |
| 20260903062557 | 31 | 0.0 | 0.0 | 0.00 | 0.00 | 0.00 | 50 | 1009.6 | |
| 20260903061542 | 31 | 0.0 | 0.0 | 0.00 | 0.00 | 0.00 | 49 | 1009.7 | |
| 20260903060529 | 31 | 0.0 | 0.0 | 0.00 | 0.00 | 0.00 | 48 | 1009.7 | |
| 20260903055521 | 31 | 0.0 | 0.0 | 0.00 | 0.00 | 0.00 | 48 | 1009.7 | |
| 20260903054527 | 31 | 0.0 | 0.0 | 0.00 | 0.00 | 0.00 | 48 | 1009.7 | |
| 20260903053534 | 31 | 209 | 0.0 | 0.0 | 0.00 | 0.00 | 0.00 | 48 | 1009.7 |
| 20260903052535 | 31 | 336 | 0.0 | 0.0 | 0.00 | 0.00 | 0.00 | 48 | 1009.7 |
| 20260903051544 | 31 | 82 | 0.0 | 0.0 | 0.00 | 0.00 | 0.00 | 48 | 1009.7 |